Location: Jackson Park
(37.2862°N, 79.9123°W)
Time: 14:48:25
(UTC+00:00)

Tiros 1 despin weight - Pass Details

Date: 10 May 2026
Orbit: 554 x 591 km, 48.2° (Epoch: 6 June)

Event Time Altitude Azimuth Distance (km) Brightness Sun altitude
Rises 15:17:24 0° 299° (WNW) 2,731 ? 57.5°
Reaches altitude 10° 15:20:14 10° 318° (NW) 1,834 ? 58.0°
Maximum altitude 15:23:10 18° 3° (N) 1,386 ? 58.5°
Drops below altitude 10° 15:26:06 10° 48° (NE) 1,834 ? 59.0°
Sets 15:28:57 0° 67° (ENE) 2,731 ? 59.4°
